Year,Month,Day,Hour,Minute,Value (Times are PST for temperature in C)
2007,11,30,00,00,1.10
2007,11,30,00,01,1.10
2007,11,30,00,02,1.10
2007,11,30,00,03,1.10
2007,11,30,00,04,1.10
2007,11,30,00,05,1.10
2007,11,30,00,06,1.10
2007,11,30,00,07,1.10
2007,11,30,00,08,1.10
2007,11,30,00,09,1.00
2007,11,30,00,10,1.00
2007,11,30,00,11,0.90
2007,11,30,00,12,0.90
2007,11,30,00,13,0.90
2007,11,30,00,14,0.90
2007,11,30,00,15,0.90
2007,11,30,00,16,0.90
2007,11,30,00,17,0.90
2007,11,30,00,18,0.90
2007,11,30,00,19,0.90
2007,11,30,00,20,0.90
2007,11,30,00,21,0.90
2007,11,30,00,22,0.80
2007,11,30,00,23,0.80
2007,11,30,00,24,0.80
2007,11,30,00,25,0.80
2007,11,30,00,26,0.80
2007,11,30,00,27,0.80
2007,11,30,00,28,0.80
2007,11,30,00,29,0.80
2007,11,30,00,30,0.90
2007,11,30,00,31,0.90
2007,11,30,00,32,0.90
2007,11,30,00,33,0.90
2007,11,30,00,34,0.90
2007,11,30,00,35,0.90
2007,11,30,00,36,0.90
2007,11,30,00,37,0.90
2007,11,30,00,38,1.00
2007,11,30,00,39,1.00
2007,11,30,00,40,1.10
2007,11,30,00,41,1.10
2007,11,30,00,42,1.10
2007,11,30,00,43,1.10
2007,11,30,00,44,1.10
2007,11,30,00,45,1.10
2007,11,30,00,46,1.20
2007,11,30,00,47,1.20
2007,11,30,00,48,1.20
2007,11,30,00,49,1.20
2007,11,30,00,50,1.30
2007,11,30,00,51,1.30
2007,11,30,00,52,1.30
2007,11,30,00,53,1.30
2007,11,30,00,54,1.20
2007,11,30,00,55,1.20
2007,11,30,00,56,1.20
2007,11,30,00,57,1.20
2007,11,30,00,58,1.20
2007,11,30,00,59,1.20
2007,11,30,01,00,1.20
2007,11,30,01,01,1.20
2007,11,30,01,02,1.20
2007,11,30,01,03,1.20
2007,11,30,01,04,1.20
2007,11,30,01,05,1.30
2007,11,30,01,06,1.30
2007,11,30,01,07,1.30
2007,11,30,01,08,1.30
2007,11,30,01,09,1.30
2007,11,30,01,10,1.30
2007,11,30,01,11,1.30
2007,11,30,01,12,1.30
2007,11,30,01,13,1.30
2007,11,30,01,14,1.30
2007,11,30,01,15,1.30
2007,11,30,01,16,1.30
2007,11,30,01,17,1.30
2007,11,30,01,18,1.30
2007,11,30,01,19,1.30
2007,11,30,01,20,1.30
2007,11,30,01,21,1.40
2007,11,30,01,22,1.40
2007,11,30,01,23,1.50
2007,11,30,01,24,1.50
2007,11,30,01,25,1.60
2007,11,30,01,26,1.60
2007,11,30,01,27,1.60
2007,11,30,01,28,1.60
2007,11,30,01,29,1.60
2007,11,30,01,30,1.60
2007,11,30,01,31,1.70
2007,11,30,01,32,1.70
2007,11,30,01,33,1.70
2007,11,30,01,34,1.70
2007,11,30,01,35,1.70
2007,11,30,01,36,1.70
2007,11,30,01,37,1.70
2007,11,30,01,38,1.70
2007,11,30,01,39,1.70
2007,11,30,01,40,1.70
2007,11,30,01,41,1.70
2007,11,30,01,42,1.70
2007,11,30,01,43,1.80
2007,11,30,01,44,1.80
2007,11,30,01,45,1.80
2007,11,30,01,46,1.70
2007,11,30,01,47,1.70
2007,11,30,01,48,1.70
2007,11,30,01,49,1.70
2007,11,30,01,50,1.70
2007,11,30,01,51,1.70
2007,11,30,01,52,1.70
2007,11,30,01,53,1.70
2007,11,30,01,54,1.70
2007,11,30,01,55,1.70
2007,11,30,01,56,1.70
2007,11,30,01,57,1.70
2007,11,30,01,58,1.70
2007,11,30,01,59,1.70
2007,11,30,02,00,1.60
2007,11,30,02,01,1.60
2007,11,30,02,02,1.60
2007,11,30,02,03,1.50
2007,11,30,02,04,1.50
2007,11,30,02,05,1.40
2007,11,30,02,06,1.40
2007,11,30,02,07,1.40
2007,11,30,02,08,1.30
2007,11,30,02,09,1.30
2007,11,30,02,10,1.30
2007,11,30,02,11,1.30
2007,11,30,02,12,1.30
2007,11,30,02,13,1.30
2007,11,30,02,14,1.30
2007,11,30,02,15,1.30
2007,11,30,02,16,1.30
2007,11,30,02,17,1.30
2007,11,30,02,18,1.30
2007,11,30,02,19,1.30
2007,11,30,02,20,1.30
2007,11,30,02,21,1.30
2007,11,30,02,22,1.30
2007,11,30,02,23,1.30
2007,11,30,02,24,1.30
2007,11,30,02,25,1.30
2007,11,30,02,26,1.30
2007,11,30,02,27,1.30
2007,11,30,02,28,1.30
2007,11,30,02,29,1.30
2007,11,30,02,30,1.30
2007,11,30,02,31,1.30
2007,11,30,02,32,1.30
2007,11,30,02,33,1.30
2007,11,30,02,34,1.30
2007,11,30,02,35,1.30
2007,11,30,02,36,1.30
2007,11,30,02,37,1.30
2007,11,30,02,38,1.30
2007,11,30,02,39,1.30
2007,11,30,02,40,1.30
2007,11,30,02,41,1.30
2007,11,30,02,42,1.30
2007,11,30,02,43,1.30
2007,11,30,02,44,1.30
2007,11,30,02,45,1.30
2007,11,30,02,46,1.30
2007,11,30,02,47,1.30
2007,11,30,02,48,1.30
2007,11,30,02,49,1.30
2007,11,30,02,50,1.30
2007,11,30,02,51,1.30
2007,11,30,02,52,1.30
2007,11,30,02,53,1.30
2007,11,30,02,54,1.30
2007,11,30,02,55,1.20
2007,11,30,02,56,1.20
2007,11,30,02,57,1.20
2007,11,30,02,58,1.20
2007,11,30,02,59,1.20
2007,11,30,03,00,1.20
2007,11,30,03,01,1.20
2007,11,30,03,02,1.20
2007,11,30,03,03,1.30
2007,11,30,03,04,1.30
2007,11,30,03,05,1.30
2007,11,30,03,06,1.20
2007,11,30,03,07,1.20
2007,11,30,03,08,1.20
2007,11,30,03,09,1.10
2007,11,30,03,10,1.10
2007,11,30,03,11,1.10
2007,11,30,03,12,1.10
2007,11,30,03,13,1.10
2007,11,30,03,14,1.10
2007,11,30,03,15,1.10
2007,11,30,03,16,1.10
2007,11,30,03,17,1.10
2007,11,30,03,18,1.10
2007,11,30,03,19,1.10
2007,11,30,03,20,1.10
2007,11,30,03,21,1.10
2007,11,30,03,22,1.20
2007,11,30,03,23,1.20
2007,11,30,03,24,1.20
2007,11,30,03,25,1.20
2007,11,30,03,26,1.20
2007,11,30,03,27,1.20
2007,11,30,03,28,1.20
2007,11,30,03,29,1.20
2007,11,30,03,30,1.20
2007,11,30,03,31,1.20
2007,11,30,03,32,1.20
2007,11,30,03,33,1.20
2007,11,30,03,34,1.20
2007,11,30,03,35,1.20
2007,11,30,03,36,1.20
2007,11,30,03,37,1.20
2007,11,30,03,38,1.20
2007,11,30,03,39,1.20
2007,11,30,03,40,1.20
2007,11,30,03,41,1.20
2007,11,30,03,42,1.10
2007,11,30,03,43,1.10
2007,11,30,03,44,1.10
2007,11,30,03,45,1.10
2007,11,30,03,46,1.10
2007,11,30,03,47,1.10
2007,11,30,03,48,1.00
2007,11,30,03,49,1.00
2007,11,30,03,50,0.90
2007,11,30,03,51,0.90
2007,11,30,03,52,0.90
2007,11,30,03,53,0.90
2007,11,30,03,54,0.90
2007,11,30,03,55,0.80
2007,11,30,03,56,0.80
2007,11,30,03,57,0.80
2007,11,30,03,58,0.80
2007,11,30,03,59,0.80
2007,11,30,04,00,0.80
2007,11,30,04,01,0.80
2007,11,30,04,02,0.80
2007,11,30,04,03,0.80
2007,11,30,04,05,0.70
2007,11,30,04,06,0.70
2007,11,30,04,07,0.70
2007,11,30,04,08,0.70
2007,11,30,04,09,0.70
2007,11,30,04,10,0.70
2007,11,30,04,11,0.70
2007,11,30,04,12,0.70
2007,11,30,04,13,0.60
2007,11,30,04,14,0.60
2007,11,30,04,15,0.60
2007,11,30,04,16,0.60
2007,11,30,04,17,0.60
2007,11,30,04,18,0.50
2007,11,30,04,19,0.50
2007,11,30,04,20,0.50
2007,11,30,04,21,0.50
2007,11,30,04,22,0.50
2007,11,30,04,23,0.50
2007,11,30,04,24,0.50
2007,11,30,04,25,0.50
2007,11,30,04,26,0.50
2007,11,30,04,27,0.40
2007,11,30,04,28,0.40
2007,11,30,04,29,0.30
2007,11,30,04,30,0.30
2007,11,30,04,31,0.20
2007,11,30,04,32,0.20
2007,11,30,04,33,0.20
2007,11,30,04,34,0.10
2007,11,30,04,35,0.10
2007,11,30,04,36,0.10
2007,11,30,04,37,0.00
2007,11,30,04,38,-0.10
2007,11,30,04,39,-0.10
2007,11,30,04,40,0.00
2007,11,30,04,41,0.00
2007,11,30,04,42,0.00
2007,11,30,04,43,0.00
2007,11,30,04,44,0.00
2007,11,30,04,45,-0.10
2007,11,30,04,46,0.00
2007,11,30,04,47,0.00
2007,11,30,04,48,0.00
2007,11,30,04,49,0.00
2007,11,30,04,50,0.00
2007,11,30,04,51,0.00
2007,11,30,04,52,-0.10
2007,11,30,04,53,-0.10
2007,11,30,04,54,-0.10
2007,11,30,04,55,-0.10
2007,11,30,04,56,0.00
2007,11,30,04,57,0.10
2007,11,30,04,58,0.10
2007,11,30,04,59,0.10
2007,11,30,05,00,0.10
2007,11,30,05,01,0.00
2007,11,30,05,02,0.00
2007,11,30,05,03,-0.10
2007,11,30,05,04,-0.10
2007,11,30,05,05,-0.20
2007,11,30,05,06,-0.20
2007,11,30,05,07,-0.20
2007,11,30,05,08,-0.20
2007,11,30,05,09,-0.10
2007,11,30,05,10,-0.10
2007,11,30,05,11,-0.10
2007,11,30,05,12,-0.10
2007,11,30,05,13,-0.10
2007,11,30,05,14,-0.10
2007,11,30,05,15,-0.20
2007,11,30,05,16,-0.20
2007,11,30,05,17,-0.30
2007,11,30,05,18,-0.30
2007,11,30,05,19,-0.30
2007,11,30,05,20,-0.30
2007,11,30,05,21,-0.30
2007,11,30,05,22,-0.30
2007,11,30,05,23,-0.30
2007,11,30,05,24,-0.30
2007,11,30,05,25,-0.30
2007,11,30,05,26,-0.30
2007,11,30,05,27,-0.30
2007,11,30,05,28,-0.20
2007,11,30,05,29,-0.20
2007,11,30,05,30,-0.20
2007,11,30,05,31,-0.20
2007,11,30,05,32,-0.30
2007,11,30,05,33,-0.30
2007,11,30,05,34,-0.30
2007,11,30,05,35,-0.30
2007,11,30,05,36,-0.40
2007,11,30,05,37,-0.40
2007,11,30,05,38,-0.50
2007,11,30,05,39,-0.50
2007,11,30,05,40,-0.50
2007,11,30,05,41,-0.50
2007,11,30,05,42,-0.50
2007,11,30,05,43,-0.60
2007,11,30,05,44,-0.60
2007,11,30,05,45,-0.50
2007,11,30,05,46,-0.50
2007,11,30,05,47,-0.50
2007,11,30,05,48,-0.40
2007,11,30,05,49,-0.40
2007,11,30,05,50,-0.40
2007,11,30,05,51,-0.30
2007,11,30,05,52,-0.30
2007,11,30,05,53,-0.20
2007,11,30,05,54,-0.20
2007,11,30,05,55,-0.20
2007,11,30,05,56,-0.20
2007,11,30,05,57,-0.20
2007,11,30,05,58,-0.10
2007,11,30,05,59,-0.10
2007,11,30,06,00,-0.10
2007,11,30,06,01,0.00
2007,11,30,06,02,0.00
2007,11,30,06,03,0.00
2007,11,30,06,04,0.00
2007,11,30,06,05,0.00
2007,11,30,06,06,0.00
2007,11,30,06,07,0.10
2007,11,30,06,08,0.10
2007,11,30,06,09,0.10
2007,11,30,06,10,0.10
2007,11,30,06,11,0.10
2007,11,30,06,12,0.10
2007,11,30,06,13,0.10
2007,11,30,06,14,0.10
2007,11,30,06,15,0.00
2007,11,30,06,16,0.00
2007,11,30,06,17,0.00
2007,11,30,06,18,-0.10
2007,11,30,06,19,-0.10
2007,11,30,06,20,-0.10
2007,11,30,06,21,-0.20
2007,11,30,06,22,-0.20
2007,11,30,06,23,-0.20
2007,11,30,06,24,-0.20
2007,11,30,06,25,-0.20
2007,11,30,06,26,-0.20
2007,11,30,06,27,-0.20
2007,11,30,06,28,-0.20
2007,11,30,06,29,-0.20
2007,11,30,06,30,-0.20
2007,11,30,06,31,-0.30
2007,11,30,06,32,-0.30
2007,11,30,06,33,-0.30
2007,11,30,06,34,-0.30
2007,11,30,06,35,-0.40
2007,11,30,06,36,-0.40
2007,11,30,06,37,-0.40
2007,11,30,06,38,-0.40
2007,11,30,06,39,-0.40
2007,11,30,06,40,-0.40
2007,11,30,06,41,-0.40
2007,11,30,06,42,-0.30
2007,11,30,06,43,-0.30
2007,11,30,06,44,-0.30
2007,11,30,06,45,-0.30
2007,11,30,06,46,-0.30
2007,11,30,06,47,-0.20
2007,11,30,06,48,-0.20
2007,11,30,06,49,-0.20
2007,11,30,06,50,-0.20
2007,11,30,06,51,-0.20
2007,11,30,06,52,-0.20
2007,11,30,06,53,-0.20
2007,11,30,06,54,-0.10
2007,11,30,06,55,-0.10
2007,11,30,06,56,-0.10
2007,11,30,06,57,-0.10
2007,11,30,06,58,-0.10
2007,11,30,06,59,0.00
2007,11,30,07,00,0.00
2007,11,30,07,01,0.10
2007,11,30,07,02,0.10
2007,11,30,07,03,0.10
2007,11,30,07,04,0.10
2007,11,30,07,05,0.10
2007,11,30,07,06,0.10
2007,11,30,07,07,0.10
2007,11,30,07,08,0.20
2007,11,30,07,09,0.20
2007,11,30,07,10,0.20
2007,11,30,07,11,0.20
2007,11,30,07,12,0.20
2007,11,30,07,13,0.10
2007,11,30,07,14,0.10
2007,11,30,07,15,0.10
2007,11,30,07,16,0.00
2007,11,30,07,17,0.00
2007,11,30,07,18,0.00
2007,11,30,07,19,-0.10
2007,11,30,07,20,-0.10
2007,11,30,07,21,-0.10
2007,11,30,07,22,-0.10
2007,11,30,07,23,-0.10
2007,11,30,07,24,-0.10
2007,11,30,07,25,-0.10
2007,11,30,07,26,-0.10
2007,11,30,07,27,0.00
2007,11,30,07,28,0.00
2007,11,30,07,29,0.00
2007,11,30,07,30,0.00
2007,11,30,07,31,0.00
2007,11,30,07,32,0.00
2007,11,30,07,33,-0.10
2007,11,30,07,34,-0.10
2007,11,30,07,35,-0.10
2007,11,30,07,36,0.00
2007,11,30,07,37,0.00
2007,11,30,07,38,0.00
2007,11,30,07,39,0.00
2007,11,30,07,40,0.00
2007,11,30,07,41,-0.10
2007,11,30,07,42,-0.20
2007,11,30,07,43,-0.20
2007,11,30,07,44,-0.20
2007,11,30,07,45,-0.30
2007,11,30,07,46,-0.30
2007,11,30,07,47,-0.30
2007,11,30,07,48,-0.40
2007,11,30,07,49,-0.40
2007,11,30,07,50,-0.40
2007,11,30,07,51,-0.50
2007,11,30,07,52,-0.50
2007,11,30,07,53,-0.40
2007,11,30,07,54,-0.40
2007,11,30,07,55,-0.40
2007,11,30,07,56,-0.40
2007,11,30,07,57,-0.40
2007,11,30,07,58,-0.40
2007,11,30,07,59,-0.40
2007,11,30,08,00,-0.40
2007,11,30,08,01,-0.40
2007,11,30,08,02,-0.40
2007,11,30,08,03,-0.30
2007,11,30,08,04,-0.30
2007,11,30,08,05,-0.30
2007,11,30,08,06,-0.30
2007,11,30,08,07,-0.20
2007,11,30,08,08,-0.20
2007,11,30,08,09,-0.20
2007,11,30,08,10,-0.20
2007,11,30,08,11,-0.20
2007,11,30,08,12,-0.20
2007,11,30,08,13,-0.20
2007,11,30,08,14,-0.20
2007,11,30,08,15,-0.10
2007,11,30,08,16,-0.10
2007,11,30,08,17,-0.10
2007,11,30,08,18,-0.20
2007,11,30,08,19,-0.20
2007,11,30,08,20,-0.20
2007,11,30,08,21,-0.20
2007,11,30,08,22,-0.10
2007,11,30,08,23,-0.10
2007,11,30,08,24,-0.10
2007,11,30,08,25,-0.10
2007,11,30,08,26,-0.10
2007,11,30,08,27,-0.10
2007,11,30,08,28,-0.10
2007,11,30,08,29,-0.10
2007,11,30,08,30,-0.20
2007,11,30,08,31,-0.20
2007,11,30,08,32,-0.20
2007,11,30,08,33,-0.30
2007,11,30,08,34,-0.30
2007,11,30,08,35,-0.30
2007,11,30,08,36,-0.40
2007,11,30,08,37,-0.40
2007,11,30,08,38,-0.40
2007,11,30,08,39,-0.40
2007,11,30,08,40,-0.30
2007,11,30,08,41,-0.30
2007,11,30,08,42,-0.30
2007,11,30,08,43,-0.30
2007,11,30,08,44,-0.30
2007,11,30,08,45,-0.30
2007,11,30,08,46,-0.30
2007,11,30,08,47,-0.30
2007,11,30,08,48,-0.20
2007,11,30,08,49,-0.20
2007,11,30,08,50,-0.10
2007,11,30,08,51,-0.10
2007,11,30,08,52,-0.10
2007,11,30,08,53,0.00
2007,11,30,08,54,0.10
2007,11,30,08,55,0.10
2007,11,30,08,56,0.20
2007,11,30,08,57,0.20
2007,11,30,08,58,0.20
2007,11,30,08,59,0.30
2007,11,30,09,00,0.30
2007,11,30,09,01,0.30
2007,11,30,09,02,0.30
2007,11,30,09,03,0.40
2007,11,30,09,04,0.40
2007,11,30,09,05,0.50
2007,11,30,09,06,0.50
2007,11,30,09,07,0.60
2007,11,30,09,08,0.60
2007,11,30,09,09,0.60
2007,11,30,09,10,0.60
2007,11,30,09,11,0.70
2007,11,30,09,12,0.70
2007,11,30,09,13,0.70
2007,11,30,09,14,0.80
2007,11,30,09,15,0.80
2007,11,30,09,16,0.80
2007,11,30,09,17,0.90
2007,11,30,09,18,0.90
2007,11,30,09,19,1.00
2007,11,30,09,20,1.00
2007,11,30,09,21,1.10
2007,11,30,09,22,1.20
2007,11,30,09,23,1.20
2007,11,30,09,24,1.30
2007,11,30,09,25,1.30
2007,11,30,09,26,1.30
2007,11,30,09,27,1.40
2007,11,30,09,28,1.50
2007,11,30,09,29,1.60
2007,11,30,09,30,1.70
2007,11,30,09,31,1.90
2007,11,30,09,32,2.00
2007,11,30,09,33,2.20
2007,11,30,09,34,2.30
2007,11,30,09,35,2.40
2007,11,30,09,36,2.50
2007,11,30,09,37,2.60
2007,11,30,09,38,2.70
2007,11,30,09,39,2.80
2007,11,30,09,40,2.90
2007,11,30,09,41,3.00
2007,11,30,09,42,3.10
2007,11,30,09,43,3.20
2007,11,30,09,44,3.20
2007,11,30,09,45,3.30
2007,11,30,09,46,3.30
2007,11,30,09,47,3.30
2007,11,30,09,48,3.30
2007,11,30,09,49,3.40
2007,11,30,09,50,3.40
2007,11,30,09,51,3.40
2007,11,30,09,52,3.40
2007,11,30,09,53,3.40
2007,11,30,09,54,3.40
2007,11,30,09,55,3.40
2007,11,30,09,56,3.50
2007,11,30,09,57,3.50
2007,11,30,09,58,3.50
2007,11,30,09,59,3.50
2007,11,30,10,00,3.50
2007,11,30,10,01,3.50
2007,11,30,10,02,3.50
2007,11,30,10,03,3.50
2007,11,30,10,04,3.50
2007,11,30,10,05,3.60
2007,11,30,10,06,3.60
2007,11,30,10,07,3.60
2007,11,30,10,08,3.60
2007,11,30,10,09,3.60
2007,11,30,10,10,3.60
2007,11,30,10,11,3.60
2007,11,30,10,12,3.70
2007,11,30,10,13,3.70
2007,11,30,10,14,3.70
2007,11,30,10,15,3.70
2007,11,30,10,16,3.70
2007,11,30,10,17,3.70
2007,11,30,10,18,3.70
2007,11,30,10,19,3.70
2007,11,30,10,20,3.80
2007,11,30,10,21,3.80
2007,11,30,10,22,3.80
2007,11,30,10,23,3.70
2007,11,30,10,24,3.80
2007,11,30,10,25,3.80
2007,11,30,10,26,3.80
2007,11,30,10,27,3.80
2007,11,30,10,28,3.80
2007,11,30,10,29,3.80
2007,11,30,10,30,3.80
2007,11,30,10,31,3.80
2007,11,30,10,32,3.80
2007,11,30,10,33,3.80
2007,11,30,10,34,3.80
2007,11,30,10,35,3.80
2007,11,30,10,36,3.80
2007,11,30,10,37,3.80
2007,11,30,10,38,3.80
2007,11,30,10,39,3.80
2007,11,30,10,40,3.80
2007,11,30,10,41,3.80
2007,11,30,10,42,3.80
2007,11,30,10,43,3.80
2007,11,30,10,44,3.80
2007,11,30,10,45,3.80
2007,11,30,10,46,3.80
2007,11,30,10,47,3.80
2007,11,30,10,48,3.80
2007,11,30,10,49,3.80
2007,11,30,10,50,3.80
2007,11,30,10,51,3.80
2007,11,30,10,52,3.80
2007,11,30,10,53,3.80
2007,11,30,10,54,3.90
2007,11,30,10,55,3.90
2007,11,30,10,56,3.90
2007,11,30,10,57,3.90
2007,11,30,10,58,3.90
2007,11,30,10,59,3.90
2007,11,30,11,00,3.90
2007,11,30,11,01,3.90
2007,11,30,11,02,3.80
2007,11,30,11,03,3.80
2007,11,30,11,04,3.80
2007,11,30,11,05,3.80
2007,11,30,11,06,3.80
2007,11,30,11,07,3.70
2007,11,30,11,08,3.70
2007,11,30,11,09,3.70
2007,11,30,11,10,3.70
2007,11,30,11,11,3.70
2007,11,30,11,12,3.70
2007,11,30,11,13,3.70
2007,11,30,11,14,3.80
2007,11,30,11,15,3.80
2007,11,30,11,16,3.80
2007,11,30,11,17,3.80
2007,11,30,11,18,3.80
2007,11,30,11,19,3.80
2007,11,30,11,20,3.80
2007,11,30,11,21,3.90
2007,11,30,11,22,3.90
2007,11,30,11,23,3.90
2007,11,30,11,24,3.90
2007,11,30,11,25,3.90
2007,11,30,11,26,3.90
2007,11,30,11,27,3.90
2007,11,30,11,28,3.90
2007,11,30,11,29,3.90
2007,11,30,11,30,3.90
2007,11,30,11,31,3.90
2007,11,30,11,32,3.90
2007,11,30,11,33,3.90
2007,11,30,11,34,3.90
2007,11,30,11,35,3.90
2007,11,30,11,36,3.90
2007,11,30,11,37,3.90
2007,11,30,11,38,3.90
2007,11,30,11,39,3.90
2007,11,30,11,40,3.90
2007,11,30,11,41,4.00
2007,11,30,11,42,4.00
2007,11,30,11,43,4.00
2007,11,30,11,44,4.00
2007,11,30,11,45,3.90
2007,11,30,11,46,3.90
2007,11,30,11,47,4.00
2007,11,30,11,48,4.00
2007,11,30,11,49,4.00
2007,11,30,11,50,4.10
2007,11,30,11,51,4.10
2007,11,30,11,52,4.10
2007,11,30,11,53,4.10
2007,11,30,11,54,4.10
2007,11,30,11,55,4.10
2007,11,30,11,56,4.10
2007,11,30,11,57,4.00
2007,11,30,11,58,4.00
2007,11,30,11,59,4.00
2007,11,30,12,00,4.00
2007,11,30,12,01,4.00
2007,11,30,12,02,3.90
2007,11,30,12,03,3.90
2007,11,30,12,04,4.00
2007,11,30,12,05,4.00
2007,11,30,12,06,4.00
2007,11,30,12,07,4.00
2007,11,30,12,08,4.00
2007,11,30,12,09,4.00
2007,11,30,12,10,4.00
2007,11,30,12,11,4.00
2007,11,30,12,12,4.00
2007,11,30,12,13,4.10
2007,11,30,12,14,4.00
2007,11,30,12,15,4.00
2007,11,30,12,16,4.00
2007,11,30,12,17,4.10
2007,11,30,12,18,4.10
2007,11,30,12,19,4.10
2007,11,30,12,20,4.20
2007,11,30,12,21,4.20
2007,11,30,12,22,4.20
2007,11,30,12,23,4.20
2007,11,30,12,24,4.20
2007,11,30,12,25,4.30
2007,11,30,12,26,4.30
2007,11,30,12,27,4.30
2007,11,30,12,28,4.40
2007,11,30,12,29,4.40
2007,11,30,12,30,4.40
2007,11,30,12,31,4.30
2007,11,30,12,32,4.30
2007,11,30,12,33,4.30
2007,11,30,12,34,4.20
2007,11,30,12,35,4.20
2007,11,30,12,36,4.20
2007,11,30,12,37,4.10
2007,11,30,12,38,4.10
2007,11,30,12,39,4.20
2007,11,30,12,40,4.20
2007,11,30,12,41,4.20
2007,11,30,12,42,4.20
2007,11,30,12,43,4.20
2007,11,30,12,44,4.30
2007,11,30,12,45,4.30
2007,11,30,12,46,4.30
2007,11,30,12,47,4.30
2007,11,30,12,48,4.30
2007,11,30,12,49,4.30
2007,11,30,12,50,4.30
2007,11,30,12,51,4.30
2007,11,30,12,52,4.30
2007,11,30,12,53,4.30
2007,11,30,12,54,4.30
2007,11,30,12,55,4.30
2007,11,30,12,56,4.20
2007,11,30,12,57,4.20
2007,11,30,12,58,4.20
2007,11,30,12,59,4.20
2007,11,30,13,00,4.20
2007,11,30,13,01,4.30
2007,11,30,13,02,4.30
2007,11,30,13,03,4.30
2007,11,30,13,04,4.30
2007,11,30,13,05,4.30
2007,11,30,13,06,4.30
2007,11,30,13,07,4.30
2007,11,30,13,08,4.30
2007,11,30,13,09,4.30
2007,11,30,13,10,4.20
2007,11,30,13,11,4.20
2007,11,30,13,12,4.20
2007,11,30,13,13,4.20
2007,11,30,13,14,4.20
2007,11,30,13,15,4.30
2007,11,30,13,16,4.30
2007,11,30,13,17,4.30
2007,11,30,13,18,4.30
2007,11,30,13,19,4.30
2007,11,30,13,20,4.40
2007,11,30,13,21,4.40
2007,11,30,13,22,4.40
2007,11,30,13,23,4.40
2007,11,30,13,24,4.40
2007,11,30,13,25,4.40
2007,11,30,13,26,4.40
2007,11,30,13,27,4.30
2007,11,30,13,28,4.30
2007,11,30,13,29,4.20
2007,11,30,13,30,4.20
2007,11,30,13,31,4.20
2007,11,30,13,32,4.10
2007,11,30,13,33,4.20
2007,11,30,13,34,4.20
2007,11,30,13,35,4.30
2007,11,30,13,36,4.30
2007,11,30,13,37,4.40
2007,11,30,13,38,4.40
2007,11,30,13,39,4.50
2007,11,30,13,40,4.50
2007,11,30,13,41,4.60
2007,11,30,13,42,4.50
2007,11,30,13,43,4.50
2007,11,30,13,44,4.40
2007,11,30,13,45,4.40
2007,11,30,13,46,4.30
2007,11,30,13,47,4.30
2007,11,30,13,48,4.30
2007,11,30,13,49,4.30
2007,11,30,13,50,4.30
2007,11,30,13,51,4.30
2007,11,30,13,52,4.30
2007,11,30,13,53,4.30
2007,11,30,13,54,4.30
2007,11,30,13,55,4.40
2007,11,30,13,56,4.40
2007,11,30,13,57,4.40
2007,11,30,13,58,4.30
2007,11,30,13,59,4.30
2007,11,30,14,00,4.30
2007,11,30,14,01,4.30
2007,11,30,14,02,4.30
2007,11,30,14,03,4.40
2007,11,30,14,04,4.40
2007,11,30,14,05,4.40
2007,11,30,14,06,4.40
2007,11,30,14,07,4.40
2007,11,30,14,08,4.40
2007,11,30,14,09,4.40
2007,11,30,14,10,4.40
2007,11,30,14,11,4.40
2007,11,30,14,12,4.40
2007,11,30,14,13,4.40
2007,11,30,14,14,4.40
2007,11,30,14,15,4.40
2007,11,30,14,16,4.40
2007,11,30,14,17,4.40
2007,11,30,14,18,4.40
2007,11,30,14,19,4.40
2007,11,30,14,20,4.40
2007,11,30,14,21,4.40
2007,11,30,14,22,4.40
2007,11,30,14,23,4.40
2007,11,30,14,24,4.40
2007,11,30,14,25,4.40
2007,11,30,14,26,4.40
2007,11,30,14,27,4.40
2007,11,30,14,28,4.40
2007,11,30,14,29,4.40
2007,11,30,14,30,4.40
2007,11,30,14,31,4.30
2007,11,30,14,32,4.30
2007,11,30,14,33,4.40
2007,11,30,14,34,4.30
2007,11,30,14,35,4.30
2007,11,30,14,36,4.30
2007,11,30,14,37,4.30
2007,11,30,14,38,4.30
2007,11,30,14,39,4.30
2007,11,30,14,40,4.40
2007,11,30,14,41,4.40
2007,11,30,14,42,4.40
2007,11,30,14,43,4.30
2007,11,30,14,44,4.30
2007,11,30,14,45,4.40
2007,11,30,14,46,4.40
2007,11,30,14,47,4.40
2007,11,30,14,48,4.30
2007,11,30,14,49,4.30
2007,11,30,14,50,4.30
2007,11,30,14,51,4.30
2007,11,30,14,52,4.30
2007,11,30,14,53,4.30
2007,11,30,14,54,4.30
2007,11,30,14,55,4.30
2007,11,30,14,56,4.30
2007,11,30,14,57,4.30
2007,11,30,14,58,4.30
2007,11,30,14,59,4.30
2007,11,30,15,00,4.30
2007,11,30,15,01,4.30
2007,11,30,15,02,4.30
2007,11,30,15,03,4.30
2007,11,30,15,04,4.30
2007,11,30,15,05,4.30
2007,11,30,15,06,4.30
2007,11,30,15,07,4.30
2007,11,30,15,08,4.30
2007,11,30,15,09,4.30
2007,11,30,15,10,4.30
2007,11,30,15,11,4.30
2007,11,30,15,12,4.30
2007,11,30,15,13,4.30
2007,11,30,15,14,4.30
2007,11,30,15,15,4.20
2007,11,30,15,16,4.20
2007,11,30,15,17,4.20
2007,11,30,15,18,4.20
2007,11,30,15,19,4.20
2007,11,30,15,20,4.20
2007,11,30,15,21,4.10
2007,11,30,15,22,4.10
2007,11,30,15,23,4.10
2007,11,30,15,24,4.10
2007,11,30,15,25,4.00
2007,11,30,15,26,4.00
2007,11,30,15,27,4.00
2007,11,30,15,28,3.90
2007,11,30,15,29,3.90
2007,11,30,15,30,3.90
2007,11,30,15,31,3.90
2007,11,30,15,32,3.90
2007,11,30,15,33,3.90
2007,11,30,15,34,3.90
2007,11,30,15,35,3.90
2007,11,30,15,36,3.90
2007,11,30,15,37,3.90
2007,11,30,15,38,3.90
2007,11,30,15,39,3.90
2007,11,30,15,40,3.90
2007,11,30,15,41,3.90
2007,11,30,15,42,3.90
2007,11,30,15,43,3.80
2007,11,30,15,44,3.80
2007,11,30,15,45,3.80
2007,11,30,15,46,3.80
2007,11,30,15,47,3.80
2007,11,30,15,48,3.80
2007,11,30,15,49,3.70
2007,11,30,15,50,3.70
2007,11,30,15,51,3.70
2007,11,30,15,52,3.70
2007,11,30,15,53,3.70
2007,11,30,15,54,3.70
2007,11,30,15,55,3.70
2007,11,30,15,56,3.70
2007,11,30,15,57,3.70
2007,11,30,15,58,3.70
2007,11,30,15,59,3.70
2007,11,30,16,00,3.60
2007,11,30,16,01,3.60
2007,11,30,16,02,3.60
2007,11,30,16,03,3.60
2007,11,30,16,04,3.60
2007,11,30,16,05,3.60
2007,11,30,16,06,3.60
2007,11,30,16,07,3.60
2007,11,30,16,08,3.60
2007,11,30,16,09,3.50
2007,11,30,16,10,3.50
2007,11,30,16,11,3.50
2007,11,30,16,12,3.40
2007,11,30,16,13,3.40
2007,11,30,16,14,3.40
2007,11,30,16,15,3.40
2007,11,30,16,16,3.40
2007,11,30,16,17,3.40
2007,11,30,16,18,3.40
2007,11,30,16,19,3.40
2007,11,30,16,20,3.30
2007,11,30,16,21,3.40
2007,11,30,16,22,3.30
2007,11,30,16,23,3.30
2007,11,30,16,24,3.30
2007,11,30,16,25,3.30
2007,11,30,16,26,3.30
2007,11,30,16,27,3.30
2007,11,30,16,28,3.30
2007,11,30,16,29,3.30
2007,11,30,16,30,3.30
2007,11,30,16,31,3.30
2007,11,30,16,32,3.20
2007,11,30,16,33,3.20
2007,11,30,16,34,3.20
2007,11,30,16,35,3.20
2007,11,30,16,36,3.20
2007,11,30,16,37,3.20
2007,11,30,16,38,3.20
2007,11,30,16,39,3.20
2007,11,30,16,40,3.20
2007,11,30,16,41,3.20
2007,11,30,16,42,3.10
2007,11,30,16,43,3.10
2007,11,30,16,44,3.10
2007,11,30,16,45,3.10
2007,11,30,16,46,3.10
2007,11,30,16,47,3.10
2007,11,30,16,48,3.10
2007,11,30,16,49,3.10
2007,11,30,16,50,3.10
2007,11,30,16,51,3.10
2007,11,30,16,52,3.10
2007,11,30,16,53,3.10
2007,11,30,16,54,3.10
2007,11,30,16,55,3.00
2007,11,30,16,56,3.00
2007,11,30,16,57,3.00
2007,11,30,16,58,3.00
2007,11,30,16,59,3.00
2007,11,30,17,00,3.00
2007,11,30,17,01,2.90
2007,11,30,17,02,2.90
2007,11,30,17,03,2.90
2007,11,30,17,04,2.90
2007,11,30,17,05,2.90
2007,11,30,17,06,2.90
2007,11,30,17,07,2.90
2007,11,30,17,08,2.90
2007,11,30,17,09,2.90
2007,11,30,17,10,2.90
2007,11,30,17,11,2.90
2007,11,30,17,12,2.90
2007,11,30,17,13,2.90
2007,11,30,17,14,2.90
2007,11,30,17,15,2.90
2007,11,30,17,16,2.90
2007,11,30,17,17,2.90
2007,11,30,17,18,2.90
2007,11,30,17,19,2.90
2007,11,30,17,20,2.90
2007,11,30,17,21,2.90
2007,11,30,17,22,2.90
2007,11,30,17,23,2.90
2007,11,30,17,24,2.90
2007,11,30,17,25,2.90
2007,11,30,17,26,2.90
2007,11,30,17,27,2.80
2007,11,30,17,28,2.80
2007,11,30,17,29,2.80
2007,11,30,17,30,2.80
2007,11,30,17,31,2.80
2007,11,30,17,32,2.80
2007,11,30,17,33,2.80
2007,11,30,17,34,2.80
2007,11,30,17,35,2.80
2007,11,30,17,36,2.80
2007,11,30,17,37,2.80
2007,11,30,17,38,2.80
2007,11,30,17,39,2.80
2007,11,30,17,40,2.80
2007,11,30,17,41,2.80
2007,11,30,17,42,2.80
2007,11,30,17,43,2.80
2007,11,30,17,44,2.80
2007,11,30,17,45,2.80
2007,11,30,17,46,2.80
2007,11,30,17,47,2.80
2007,11,30,17,48,2.80
2007,11,30,17,49,2.80
2007,11,30,17,50,2.80
2007,11,30,17,51,2.80
2007,11,30,17,52,2.80
2007,11,30,17,53,2.80
2007,11,30,17,54,2.80
2007,11,30,17,55,2.80
2007,11,30,17,56,2.80
2007,11,30,17,57,2.80
2007,11,30,17,58,2.80
2007,11,30,17,59,2.80